EW9506 Weather Reports


Display with metric or nautical units.
time (UTC)temp
F
wind
direction
speed
MPH
gust
MPH
rain 1hr
in
rain 24hr
in
rain mn
in
humidity
%
barometer
mb
20260906214524 94 240 13.0 31.0 0.00 0.00 0.00 12 1001.0
20260906213024 94 305 17.0 28.0 0.00 0.00 0.00 12 1001.2
20260906211527 93 257 11.0 30.0 0.00 0.00 0.00 13 1001.5
20260906210019 93 253 11.0 22.0 0.00 0.00 0.00 15 1001.6
20260906204511 92 208 6.0 16.0 0.00 0.00 0.00 19 1001.7
20260906203008 92 234 15.0 29.0 0.00 0.00 0.00 19 1002.1
20260906201536 91 215 4.0 21.0 0.00 0.00 0.00 19 1002.2
20260906200045 90 229 7.0 22.0 0.00 0.00 0.00 22 1002.6
20260906194530 91 196 15.0 22.0 0.00 0.00 0.00 21 1002.7
20260906193029 90 221 16.0 21.0 0.00 0.00 0.00 21 1003.0
20260906191525 90 201 13.0 24.0 0.00 0.00 0.00 22 1003.4
20260906190021 88 264 11.0 20.0 0.00 0.00 0.00 23 1003.6
20260906184515 87 248 5.0 13.0 0.00 0.00 0.00 25 1003.9
20260906183027 87 224 14.0 22.0 0.00 0.00 0.00 24 1004.1
20260906181611 86 238 9.0 18.0 0.00 0.00 0.00 27 1004.3
20260906180006 85 255 7.0 16.0 0.00 0.00 0.00 29 1004.6
20260906174539 84 233 7.0 15.0 0.00 0.00 0.00 31 1004.9
20260906173031 83 246 11.0 20.0 0.00 0.00 0.00 32 1005.2
20260906171524 82 293 3.0 13.0 0.00 0.00 0.00 36 1005.4
20260906170020 81 250 7.0 15.0 0.00 0.00 0.00 39 1005.6
20260906164535 80 246 5.0 10.0 0.00 0.00 0.00 41 1005.8
20260906163025 79 28 4.0 10.0 0.00 0.00 0.00 41 1006.0
20260906161543 78 333 4.0 13.0 0.00 0.00 0.00 45 1006.0
20260906160049 77 218 5.0 9.0 0.00 0.00 0.00 50 1006.1
20260906154535 76 207 7.0 13.0 0.00 0.00 0.00 51 1006.1
20260906153034 74 216 9.0 16.0 0.00 0.00 0.00 55 1006.2
20260906151526 72 217 8.0 13.0 0.00 0.00 0.00 60 1006.3
20260906150043 72 219 9.0 14.0 0.00 0.00 0.00 60 1006.4
20260906144532 70 226 8.0 11.0 0.00 0.00 0.00 65 1006.2
20260906143025 69 226 9.0 14.0 0.00 0.00 0.00 66 1006.2
20260906141532 68 210 11.0 15.0 0.00 0.00 0.00 68 1006.1
20260906140021 67 224 11.0 16.0 0.00 0.00 0.00 70 1006.0
20260906134512 66 224 9.0 15.0 0.00 0.00 0.00 71 1006.2
20260906133012 64 222 6.0 9.0 0.00 0.00 0.00 73 1006.1
20260906131523 64 219 7.0 11.0 0.00 0.00 0.00 74 1006.1
20260906130013 64 223 9.0 13.0 0.00 0.00 0.00 73 1005.9
20260906124505 64 208 8.0 11.0 0.00 0.00 0.00 74 1006.0
20260906123007 64 214 9.0 13.0 0.00 0.00 0.00 72 1006.0
20260906121504 65 201 11.0 15.0 0.00 0.00 0.00 72 1005.9
20260906120002 64 218 8.0 10.0 0.00 0.00 0.00 72 1006.0
20260906114601 65 217 5.0 9.0 0.00 0.00 0.00 73 1006.1
20260906113104 64 212 3.0 5.0 0.00 0.00 0.00 72 1006.2
20260906111556 64 206 4.0 7.0 0.00 0.00 0.00 71 1006.4
20260906110056 64 223 4.0 9.0 0.00 0.00 0.00 70 1006.1
20260906104605 64 220 6.0 9.0 0.00 0.00 0.00 69 1006.0
20260906103049 65 218 6.0 11.0 0.00 0.00 0.00 68 1006.0
20260906101545 64 196 6.0 9.0 0.00 0.00 0.00 67 1005.9
20260906100045 65 220 5.0 10.0 0.00 0.00 0.00 63 1006.0
20260906094602 65 194 6.0 9.0 0.00 0.00 0.00 61 1005.8
20260906093038 66 185 7.0 10.0 0.00 0.00 0.00 58 1005.9
20260906091541 65 190 1.0 3.0 0.00 0.00 0.00 55 1005.6
20260906090033 66 178 1.0 2.0 0.00 0.00 0.00 54 1005.8
20260906084536 65 178 0.0 2.0 0.00 0.00 0.00 53 1005.7
20260906083033 65 324 1.0 3.0 0.00 0.00 0.00 53 1005.7
20260906081540 66 76 2.0 4.0 0.00 0.00 0.00 51 1005.9
20260906080022 67 324 2.0 3.0 0.00 0.00 0.00 49 1005.8
20260906074519 69 102 0.0 2.0 0.00 0.00 0.00 47 1005.7
20260906073013 68 231 2.0 4.0 0.00 0.00 0.00 48 1006.1
20260906071512 68 197 4.0 8.0 0.00 0.00 0.00 48 1006.0
20260906070011 68 201 1.0 3.0 0.00 0.00 0.00 46 1005.8
20260906064509 69 39 1.0 4.0 0.00 0.00 0.00 44 1006.1
20260906063008 69 223 2.0 4.0 0.00 0.00 0.00 44 1006.3
20260906061507 69 277 1.0 4.0 0.00 0.00 0.00 43 1006.4
20260906060005 70 163 1.0 3.0 0.00 0.00 0.00 44 1006.3
20260906054504 70 210 0.0 4.0 0.00 0.00 0.00 44 1006.4
20260906053002 70 110 3.0 5.0 0.00 0.00 0.00 44 1006.4
20260906051601 70 82 5.0 6.0 0.00 0.00 0.00 43 1006.4
20260906050125 71 28 1.0 3.0 0.00 0.00 0.00 42 1006.4
20260906044558 72 245 2.0 5.0 0.00 0.00 0.00 41 1006.6
20260906043039 72 89 1.0 4.0 0.00 0.00 0.00 40 1006.4
20260906041525 73 269 1.0 4.0 0.00 0.00 0.00 39 1006.5
20260906040027 74 105 5.0 9.0 0.00 0.00 0.00 39 1006.3
20260906034521 74 103 5.0 8.0 0.00 0.00 0.00 38 1006.3
20260906033020 74 96 5.0 8.0 0.00 0.00 0.00 37 1006.3
20260906031534 75 88 6.0 10.0 0.00 0.00 0.00 35 1006.1
20260906030017 76 77 8.0 14.0 0.00 0.00 0.00 34 1005.8
20260906024515 77 82 8.0 12.0 0.00 0.00 0.00 32 1005.7
20260906023019 78 83 8.0 12.0 0.00 0.00 0.00 29 1005.5
20260906021515 78 77 8.0 11.0 0.00 0.00 0.00 28 1005.3
20260906020012 79 88 7.0 12.0 0.00 0.00 0.00 26 1005.2
20260906014512 80 79 8.0 11.0 0.00 0.00 0.00 25 1004.9
20260906013010 81 79 6.0 12.0 0.00 0.00 0.00 24 1004.8
20260906011513 83 72 7.0 11.0 0.00 0.00 0.00 23 1004.7
20260906010007 85 84 10.0 14.0 0.00 0.00 0.00 21 1004.7
20260906004507 86 88 11.0 17.0 0.00 0.00 0.00 21 1004.8
20260906003011 87 76 10.0 15.0 0.00 0.00 0.00 20 1004.6
20260906001506 87 89 10.0 18.0 0.00 0.00 0.00 20 1004.6
20260906000004 88 98 10.0 15.0 0.00 0.00 0.00 20 1004.4
20260905234507 88 86 16.0 21.0 0.00 0.00 0.00 20 1004.2
20260905233002 89 65 9.0 13.0 0.00 0.00 0.00 19 1004.3
20260905231500 89 68 5.0 11.0 0.00 0.00 0.00 19 1004.1
20260905230059 89 115 5.0 12.0 0.00 0.00 0.00 19 1004.2
20260905224607 88 102 9.0 14.0 0.00 0.00 0.00 19 1004.3
20260905223057 89 52 6.0 10.0 0.00 0.00 0.00 19 1004.4
20260905221600 89 63 2.0 9.0 0.00 0.00 0.00 20 1004.4
20260905220057 87 217 3.0 12.0 0.00 0.00 0.00 20 1004.7